Orbital Elements at Epoch 2459000.5 (2020-May-31.0) TDB
Reference: JPL 17 (heliocentric ecliptic J2000)
Element | Value | Uncertainty (1-sigma) | Units |
e | .2343906629363711 | 3.9699e-08 | |
a | 2.339475755247392 | 8.4595e-09 | au |
q | 1.791124482051389 | 9.3184e-08 | au |
i | 1.634136014786786 | 4.0214e-06 | deg |
node | 290.7482432786832 | 0.00017504 | deg |
peri | 40.49796763056556 | 0.00017525 | deg |
M | 35.13825700205751 | 1.0442e-05 | deg |
tp | 2458872.928411219297 (2020-Jan-24.42841122) | 3.7609e-05 | TDB |
period | 1307.001993820129 3.58 | 7.0892e-06 1.941e-08 | d yr |
n | .2754395186099033 | 1.494e-09 | deg/d |
Q | 2.887827028443396 | 1.0442e-08 | au |
|
| | Orbit Determination Parameters
Additional Information
|